Location: Andrest
(43.3200°N, 0.0641°E)
Time: 03:29:49
(UTC+00:00)

COSMO-SKYMED 1 - Pass Details

Date: 13 April 2021
Orbit: 621 x 623 km, 97.9° (Epoch: 18 May)

Event Time Altitude Azimuth Distance (km) Brightness Sun altitude
Rises 03:53:45 0° 121° (ESE) 2,897 6.4 -15.6°
Reaches altitude 10° 03:56:42 10° 99° (E) 1,996 6.0 -15.1°
Maximum altitude 03:59:15 15° 63° (ENE) 1,665 6.0 -14.7°
Drops below altitude 10° 04:01:47 10° 27° (NNE) 2,004 6.0 -14.3°
Sets 04:04:45 0° 5° (N) 2,915 6.5 -13.8°
